Hourly Data Report for June 17, 2020

TORONTO CITY
ONTARIO
Current Station Operator: ECCC - MSC

43°40'00.000" N
79°24'00.000" W
112.50 m
6158355
71508
XTO

Download Data

Hourly Data (June 2020)
Hourly Data Report for June 17, 2020
TIME
LST
Temp Definition
°C
Dew Point Definition
°C
Rel Hum Definition
%
Precip. Amount Definition
mm

Wind Dir Definition
10's deg

Wind Spd Definition
km/h
Visibility Definition
km
Stn Press Definition
kPa
Hmdx Definition


Wind Chill Definition


Weather Definition


00:00 15.8 7.1 56 0.0       101.14     LegendNANA
01:00 14.9 7.4 61 0.0       101.09     LegendNANA
02:00 15.2 7.2 59 0.0       101.12     LegendNANA
03:00 15.5 7.1 57 0.0       101.11     LegendNANA
04:00 14.5 6.7 59 0.0       101.12     LegendNANA
05:00 15.9 6.0 52 0.0       101.13     LegendNANA
06:00 16.0 6.1 52 0.0       101.15     LegendNANA
07:00 18.4 7.5 49 0.0       101.16     LegendNANA
08:00 20.7 7.6 43 0.0       101.18     LegendNANA
09:00 21.4 7.3 40 0.0       101.14     LegendNANA
10:00 21.9 7.1 38 0.0       101.14     LegendNANA
11:00 22.5 6.3 35 0.0       101.14     LegendNANA
12:00 23.4 7.5 36 0.0       101.12     LegendNANA
13:00 24.0 8.1 36 0.0       101.07     LegendNANA
14:00 25.2 7.2 32 0.0       101.01 25   LegendNANA
15:00 26.3 6.7 29 0.0       100.90 26   LegendNANA
16:00 26.8 4.9 25 0.3       100.83 26   LegendNANA
17:00 24.9 7.1 32 0.4       100.80 25   LegendNANA
18:00 22.5 7.8 39 0.0       100.78     LegendNANA
19:00 21.9 8.5 42 0.0       100.76     LegendNANA
20:00 21.0 8.3 44 0.0       100.76     LegendNANA
21:00 19.2 9.5 53 0.0       100.77     LegendNANA
22:00 18.5 9.9 58 0.0       100.77     LegendNANA
23:00 18.0 10.5 62 0.0       100.74     LegendNANA

Notes on Data Quality.

Legend

  • E = Estimated
  • M = Missing
  • NA = Not Available*
  • [empty] = Indicates an unobserved value
Date modified: